Torna al catalogo

STARLINK-4764

AttivoComunicazioniVLEO
NORAD 53827·PAYLOAD·🇺🇸 United States

Lanciato Sep 19, 2022 da Cape Canaveral Space Force Station

Loading…

Prossimi Passaggi (prossime 24 ore)

TLE

AggiornatoSource: CelesTrak SupGP

Epoca: Sep 15, 2026, 01:53 UTC

1 53827C 22114K   26258.07895833  .00009844  00000+0  28171-3 0  2585
2 53827  53.1597 165.5954 0001269  83.3924 237.1705 15.35388266    12

Traccia STARLINK-4764 in tempo reale con AllMySat

Download on the App Store